Regional Weather Roundup
Issued by NWS

Home | Current Version | Previous Version | Graphics & Text | Print | Product List | Glossary On
Versions: 1 2 3 4 5 6 7 8 9 10 11 12 13 14 15 16 17 18 19 20 21 22 23 24 25 26 27 28 29 30 31 32 33 34 35 36 37 38 39 40 41 42 43 44 45 46 47 48 49 50
000
ASUS43 KLOT 180210
RWRIL

ILLINOIS REGIONAL WEATHER ROUNDUP
NATIONAL WEATHER SERVICE CHICAGO/ROMEOVILLE IL
800 PM CST WED DEC 17 2014

NOTE: "FAIR" INDICATES FEW OR NO CLOUDS BELOW 12,000 FEET WITH NO
SIGNIFICANT WEATHER AND/OR OBSTRUCTIONS TO VISIBILITY.

* THESE STATIONS ARE NOT UNDER NWS QUALITY CONTROL. THEY ALSO MAY NOT
  REPORT WEATHER SUCH AS PRECIPITATION OR FOG.

ILZ001-002-007-009-015-016-024-180300-
NORTHWEST ILLINOIS

CITY           SKY/WX    TMP DP  RH WIND       PRES   REMARKS
MOLINE         CLEAR     20  15  81 W5        30.30S WCI  13
STERLING*      CLEAR     19  14  79 N5        30.28F WCI  13
SAVANNA*       CLEAR     19  16  86 NE3       30.29F
$$

ILZ003-004-008-010-011-017-018-180300-
NORTH CENTRAL ILLINOIS

CITY           SKY/WX    TMP DP  RH WIND       PRES   REMARKS
ROCKFORD       CLOUDY    24  15  68 W7        30.30R WCI  16
FREEPORT*      CLOUDY    21  15  79 NW6       30.30S WCI  13
ROCHELLE*      CLOUDY    22  17  80 NW6       30.29S WCI  15
DE KALB*       CLOUDY    22  16  79 NW8       30.27S WCI  12
PERU*          FAIR      24  18  78 CALM      30.30S
$$

ILZ005-006-012>014-019>023-180300-
NORTHEAST ILLINOIS

CITY           SKY/WX    TMP DP  RH WIND       PRES   REMARKS
CHICAGO-OHARE  CLOUDY    25  16  68 W9        30.27R WCI  15
CHICAGO-MIDWAY MOCLDY    26  16  65 NW8       30.27S WCI  18
AURORA         CLOUDY    25  16  68 W8        30.28S WCI  16
LANSING*       CLOUDY    26  18  70 W5        30.28S WCI  20
JOLIET*        CLOUDY    24  16  71 W5        30.29S WCI  18
WAUKEGAN       CLOUDY    24  15  68 NW9       30.25R WCI  14
DUPAGE AIRPORT CLOUDY    24  16  71 W7        30.26S WCI  16
KANKAKEE*      CLOUDY    27  20  76 W8        30.29S WCI  18
WHEELING       CLOUDY    25  15  66 NW9       30.29R WCI  15
MORRIS*        CLOUDY    26  20  79 N3        30.28F
ROMEOVILLE*    CLOUDY    24  17  74 NW9       30.28S WCI  15
NORTHERLY ISL    N/A     27  17  66 W8          N/A  WCI  19
$$

LMZ740>746-180300-
SOUTHERN LAKE MICHIGAN

STATION/POSITION SKY/WX   TEMP    WIND        PRES    VSBY  WAVE
                          AIR SEA DIR/SP/G                  HT/PER
                          (F)     (DEG/KT/KT) (MB)    (MI)  (FT/S)
WAUKEGAN HARBOR            25     300/  8/ 14   N/A
HARRISON CRIB              26     280/ 10/ 16   N/A
BURNHAM HARBOR             26     240/  7/ 11   N/A
CALUMET HARBOR             26     280/  6/  9 1024.0R
$$

ILZ025>027-034>036-040-047-049-050-058-095>099-180300-
WEST-CENTRAL ILLINOIS

CITY           SKY/WX    TMP DP  RH WIND       PRES   REMARKS
QUINCY         PTCLDY    25  18  74 CALM      30.29R
GALESBURG*     PTCLDY    19  17  92 W3        30.29F
MACOMB*        PTCLDY    22  21  95 NW3       30.31F
JACKSONVILLE*  CLEAR     25  20  82 CALM      30.30S
PITTSFIELD*    PTCLDY    27  22  82 CALM      30.31R
$$

ILZ028>032-037-038-041>044-048-051>054-059>061-180300-
CENTRAL ILLINOIS

CITY           SKY/WX    TMP DP  RH WIND       PRES   REMARKS
PONTIAC        CLOUDY    27  21  77 NW6       30.30S WCI  21
BLOOMINGTON    CLOUDY    25  21  84 W3        30.29F
DECATUR        CLOUDY    24  19  81 N6        30.31S WCI  17
PEORIA         PTCLDY    24  18  77 CALM      30.29F
LACON*         CLEAR     20  16  83 CALM      30.30S
LINCOLN*       MOCLDY    24  20  86 CALM      30.31F
SPRINGFIELD    CLEAR     22  17  81 E5        30.30F WCI  16
TAYLORVILLE    CLEAR     23  19  86 NE7       30.30S WCI  15
$$

ILZ033-039-045-046-055>057-062-063-180300-
EAST-CENTRAL ILLINOIS

CITY           SKY/WX    TMP DP  RH WIND       PRES   REMARKS
CHAMPAIGN      CLOUDY    24  19  81 W5        30.29F WCI  18
DANVILLE*      CLOUDY    25  20  80 NW5       30.27S WCI  19
RANTOUL*       CLOUDY    28  21  75 NW7       30.29S WCI  20
MATTOON        CLOUDY    23  18  81 N8        30.30S WCI  14
PARIS*         CLOUDY    25  21  85 W5        30.32R WCI  19
$$

ILZ079-100>102-180300-
SOUTHWEST ILLINOIS

CITY           SKY/WX    TMP DP  RH WIND       PRES   REMARKS
ALTON          CLEAR     28  25  86 NE6       30.30F WCI  22
BELLEVILLE     MOCLDY    31  28  89 NE5       30.29F WCI  26
CAHOKIA*       PTCLDY    33  26  75 NE6       30.29F WCI  28
SPARTA*        CLOUDY    33  28  81 NE6       30.29S WCI  28
$$

ILZ064>066-069>071-074>076-080>082-084>086-088>090-092>094-180300-
SOUTH-CENTRAL ILLINOIS

CITY           SKY/WX    TMP DP  RH WIND       PRES   REMARKS
CARBONDALE     CLOUDY    30  26  85 CALM      30.28F
CAIRO*         CLOUDY    39  32  77 CALM      30.28S
EFFINGHAM*     MOCLDY    28  22  78 CALM      30.31S
MARION         CLOUDY    32  30  93 CALM      30.29S
MT. VERNON     CLOUDY    30  21  69 NE6       30.30S WCI  24
CENTRALIA*     CLOUDY    29  25  83 NE5       30.29F WCI  24
SALEM*         MOCLDY    30  26  83 CALM      30.30S
METROPOLIS*    MOCLDY    34  30  84 N3        30.27F
$$

ILZ067-068-072-073-078-083-087-091-180300-
SOUTHEAST ILLINOIS

CITY           SKY/WX    TMP DP  RH WIND       PRES   REMARKS
LAWRENCEVILLE  CLOUDY    29  22  75 NW5       30.31F WCI  24
FLORA*         FAIR      28  24  85 N3        30.31S
FAIRFIELD*     MOCLDY    30  26  85 CALM      30.30S
HARRISBURG*    MOCLDY    32  29  88 CALM      30.30S
ROBINSON*      CLOUDY    28  23  81 NW6       30.33S WCI  22
CARMI*         MOCLDY    31  29  94 N6        30.30S WCI  25
$$

ABBREVIATIONS USED IN REMARKS
   TC - TEMPERATURE IN CELSIUS
  WCI - WIND CHILL INDEX
   HX - HEAT INDEX
  VSB - VISIBILITY
$$




USA.gov is the U.S. government's official web portal to all federal, state and local government web resources and services.